Location: Prague
(50.0830°N, 14.4670°E)
Time: 08:57:22
(UTC+02:00)

RS-15 - Pass Details

Date: 06 April 2023
Orbit: 1885 x 2159 km, 64.8° (Epoch: 29 May)

Event Time Altitude Azimuth Distance (km) Brightness Sun altitude
Rises 02:13:51 0° 320° (NW) 5,613 10.8 -31.7°
Reaches altitude 10° 02:18:04 10° 310° (NW) 4,570 10.1 -31.4°
Enters shadow 02:26:53 26° 260° (W) 3,336 8.9 -30.9°
